TimeMDT,TemperatureF,Dew PointF,Humidity,Sea Level PressureIn,VisibilityMPH,Wind Direction,Wind SpeedMPH,Gust SpeedMPH,PrecipitationIn,Events,Conditions,WindDirDegrees,DateUTC
12:16 AM,87.8,42.8,21,30.01,10.0,NNW,18.4,21.9,N/A,,Mostly Cloudy,340,2013-06-30 06:16:00
12:25 AM,91.4,37.4,15,30.02,10.0,Variable,5.8,24.2,N/A,,Mostly Cloudy,0,2013-06-30 06:25:00
12:51 AM,89.1,41.0,19,29.76,10.0,North,9.2,-,N/A,,Mostly Cloudy,10,2013-06-30 06:51:00
1:51 AM,88.0,42.1,20,29.77,10.0,Variable,3.5,-,N/A,,Mostly Cloudy,0,2013-06-30 07:51:00
2:51 AM,86.0,42.1,21,29.78,10.0,NE,11.5,-,N/A,,Mostly Cloudy,50,2013-06-30 08:51:00
3:51 AM,84.0,46.9,27,29.79,10.0,Calm,Calm,-,N/A,,Mostly Cloudy,0,2013-06-30 09:51:00
4:51 AM,82.0,48.9,31,29.78,10.0,NE,5.8,-,N/A,,Clear,50,2013-06-30 10:51:00
5:51 AM,80.1,48.9,34,29.80,10.0,East,3.5,-,N/A,,Clear,100,2013-06-30 11:51:00
6:51 AM,80.1,50.0,35,29.81,10.0,Calm,Calm,-,N/A,,Scattered Clouds,0,2013-06-30 12:51:00
7:51 AM,81.0,50.0,34,29.84,10.0,ENE,6.9,-,N/A,,Mostly Cloudy,70,2013-06-30 13:51:00
8:51 AM,84.0,48.9,29,29.85,10.0,Variable,3.5,-,N/A,,Scattered Clouds,0,2013-06-30 14:51:00
9:51 AM,82.9,48.0,29,29.86,10.0,East,8.1,-,N/A,,Mostly Cloudy,90,2013-06-30 15:51:00
10:51 AM,86.0,48.0,27,29.84,10.0,Variable,6.9,-,N/A,,Mostly Cloudy,0,2013-06-30 16:51:00
11:51 AM,87.1,46.9,25,29.83,10.0,SE,5.8,-,N/A,,Mostly Cloudy,130,2013-06-30 17:51:00
12:51 PM,91.9,46.0,21,29.78,10.0,SE,11.5,17.3,N/A,,Scattered Clouds,130,2013-06-30 18:51:00
1:51 PM,93.9,45.0,18,29.76,10.0,SE,9.2,-,N/A,,Scattered Clouds,130,2013-06-30 19:51:00
2:51 PM,95.0,44.1,17,29.74,10.0,Variable,5.8,-,N/A,,Scattered Clouds,0,2013-06-30 20:51:00
3:51 PM,96.1,44.1,17,29.71,10.0,Variable,4.6,-,N/A,,Scattered Clouds,0,2013-06-30 21:51:00
4:51 PM,97.0,44.1,16,29.68,10.0,SE,12.7,20.7,N/A,,Scattered Clouds,140,2013-06-30 22:51:00
5:51 PM,97.0,44.1,16,29.66,10.0,East,11.5,-,N/A,,Scattered Clouds,90,2013-06-30 23:51:00
6:51 PM,96.1,44.1,17,29.66,10.0,East,11.5,-,N/A,,Scattered Clouds,100,2013-07-01 00:51:00
7:51 PM,93.9,44.1,18,29.69,10.0,East,12.7,-,N/A,,Scattered Clouds,100,2013-07-01 01:51:00
8:51 PM,91.0,45.0,20,29.71,10.0,ESE,13.8,-,N/A,,Mostly Cloudy,110,2013-07-01 02:51:00
9:51 PM,89.1,48.0,24,29.75,10.0,East,13.8,25.3,N/A,,Mostly Cloudy,90,2013-07-01 03:51:00
10:06 PM,87.8,50.0,27,30.03,10.0,North,28.8,40.3,N/A,,Mostly Cloudy,360,2013-07-01 04:06:00
10:13 PM,82.4,55.4,39,30.04,2.5,North,24.2,40.3,N/A,,Widespread Dust,10,2013-07-01 04:13:00
10:41 PM,82.4,55.4,39,30.06,7.0,NNE,26.5,34.5,N/A,,Overcast,30,2013-07-01 04:41:00
10:51 PM,82.0,55.0,39,29.84,8.0,NNE,29.9,36.8,0.00,Rain,Light Rain,20,2013-07-01 04:51:00
11:19 PM,75.2,59.0,57,30.05,6.0,East,26.5,36.8,0.03,Rain,Light Rain,100,2013-07-01 05:19:00
11:51 PM,79.0,54.0,42,29.82,10.0,East,24.2,34.5,0.04,Rain,Light Rain,80,2013-07-01 05:51:00